GEFSSGP_850_meantemp_000.txt.gz
Temperature
19 19 19 20 23 24 25 25 25 26 26 24 23 24 25 24 24 21 18 18 16 15 14 14 14 14 14 13 13 12 11 11 11 11 11 12 12 11 11 11 10 10 10 10 10 10 11 10 10
19 18 19 21 24 24 25 26 25 25 24 22 22 22 24 23 19 18 17 18 16 15 14 14 14 14 13 13 13 11 11 11 11 12 12 12 11 11 10 10 10 10 10 10 10 12 12 10 11
19 18 20 23 24 25 26 26 26 23 22 22 23 22 23 22 18 17 17 18 16 14 14 14 14 14 13 13 12 12 11 11 11 11 11 11 11 11 10 10 10 10 10 10 12 14 13 13 13
18 18 20 23 24 25 26 26 24 23 22 22 23 23 21 19 19 18 18 17 15 14 14 14 14 13 13 13 12 11 11 11 11 11 11 11 11 10 10 10 10 10 10 12 14 14 14 14 13
18 20 22 23 24 25 25 25 24 25 25 24 23 24 22 19 20 19 18 17 15 14 14 13 13 13 13 13 12 11 11 11 11 11 11 11 11 11 10 10 10 11 11 12 13 13 13 13 13
19 20 23 23 24 25 25 24 23 24 25 23 23 24 22 20 19 19 18 17 15 14 14 13 13 13 14 13 13 12 11 11 11 11 11 11 10 10 10 11 10 11 11 12 12 13 13 13 13
20 21 23 24 24 24 25 23 24 25 25 24 23 24 21 19 19 19 17 15 15 14 14 14 14 15 15 15 16 14 12 11 11 11 11 10 11 10 10 10 11 11 11 12 12 13 13 13 13
19 21 22 23 24 24 24 22 22 24 25 22 22 25 23 19 20 19 18 16 15 15 15 15 15 15 14 16 18 16 14 12 11 11 12 12 11 10 10 10 10 10 11 12 12 13 13 13 13
17 21 22 23 23 24 22 23 22 21 22 21 21 21 21 20 20 19 18 17 16 16 16 16 16 16 15 15 16 16 15 14 12 12 13 12 10 10 10 10 10 11 11 12 13 13 13 13 13
19 20 22 22 23 23 22 22 22 22 23 23 21 20 21 21 20 20 20 19 19 18 18 18 18 17 16 17 16 16 14 14 12 11 12 11 10 10 10 11 11 11 12 12 13 13 13 13 12
19 21 21 21 21 21 21 21 21 23 24 25 24 21 21 21 20 20 20 20 19 18 18 19 18 17 17 17 16 16 15 14 13 12 12 12 12 11 11 10 11 11 12 12 12 12 13 13 13
18 21 20 21 19 19 21 21 22 22 24 22 22 22 21 21 21 22 21 21 19 19 19 19 19 18 18 18 17 17 16 16 15 15 14 13 12 12 11 10 11 11 11 11 12 12 12 13 13
20 21 20 20 19 19 20 21 22 22 22 22 22 22 21 21 22 22 21 20 19 19 19 19 19 19 19 18 18 17 17 17 16 15 14 14 13 12 12 11 11 12 11 11 11 11 11 11 12
20 20 20 20 20 19 21 21 20 23 21 21 21 21 21 21 21 20 20 21 20 20 20 19 19 19 19 19 18 18 17 17 16 15 15 14 14 13 12 12 12 12 12 11 11 10 10 11 11
18 20 21 20 20 19 20 22 22 23 21 22 22 21 20 21 20 21 22 22 21 21 20 19 19 19 20 20 19 18 18 17 17 16 15 15 14 13 13 13 12 12 12 11 11 11 11 11 11
19 21 21 21 20 20 20 23 24 22 21 22 22 22 21 21 21 22 21 21 21 21 21 20 20 20 20 20 20 19 18 18 17 17 16 15 14 14 13 13 12 12 11 11 10 10 10 10 10
20 21 21 21 20 20 21 22 24 22 21 22 23 23 22 21 21 21 22 22 22 22 22 21 21 20 20 20 20 20 19 18 18 17 16 16 15 14 13 13 13 12 11 11 10 10 9 9 9
20 20 20 21 20 20 21 22 23 23 21 21 22 22 22 21 21 21 21 22 22 22 21 20 20 21 21 21 20 19 19 19 19 18 18 16 15 15 14 13 13 12 11 10 10 10 9 9 9
20 20 20 20 19 19 21 21 22 21 21 21 21 21 21 20 20 20 20 20 21 22 21 21 21 21 21 21 20 20 20 20 20 19 18 17 17 16 15 14 13 13 12 11 10 10 10 9 9
19 20 20 20 19 19 21 21 21 21 20 20 20 20 20 19 19 19 19 20 19 20 21 22 21 21 21 21 20 19 19 19 20 20 19 19 18 17 16 15 14 13 12 11 10 10 10 9 9
19 20 19 19 20 19 20 21 21 21 21 20 20 19 19 18 18 18 19 20 21 20 19 20 21 21 21 21 19 19 19 20 20 20 21 20 19 18 17 16 15 14 12 12 11 10 10 10 9
19 18 18 18 20 20 19 22 21 21 21 21 20 20 18 18 17 17 18 19 19 19 19 19 20 20 20 19 19 20 20 20 21 20 20 20 19 19 18 17 15 14 13 12 11 11 11 10 10
18 17 17 18 19 19 19 21 22 21 21 20 20 19 18 17 17 17 17 18 19 20 20 20 21 21 21 21 21 20 20 20 20 20 20 20 19 19 18 17 16 15 14 13 12 11 11 11 11
16 17 17 18 19 19 18 19 21 21 21 20 20 19 18 17 17 16 17 19 19 20 20 20 21 21 21 21 21 21 21 21 21 21 20 19 19 19 18 17 16 15 15 14 13 12 11 12 11
18 19 20 20 19 18 16 18 21 21 20 20 19 18 18 17 16 16 18 18 19 19 19 19 19 19 19 19 19 18 18 18 19 19 18 18 19 19 19 18 17 16 16 15 14 12 12 12 12
18 19 19 19 19 20 16 19 21 21 20 18 17 17 17 16 16 16 17 17 17 17 18 18 18 18 19 19 18 18 18 17 16 15 15 16 16 16 17 17 16 16 15 15 14 13 12 12 12
15 17 17 18 16 18 18 19 21 20 19 19 18 18 16 16 15 15 16 16 15 16 17 17 17 17 18 18 18 18 18 18 18 17 17 18 18 18 18 17 17 17 16 15 14 14 13 12 12
14 16 13 17 17 17 18 18 20 20 20 20 19 18 16 15 14 14 14 15 14 15 15 15 16 16 16 17 17 17 17 17 18 18 18 18 18 18 18 17 16 16 16 15 13 13 13 12 12
16 17 16 17 17 17 17 19 21 21 20 19 18 16 15 14 13 12 12 12 12 13 13 13 13 14 14 14 14 15 15 15 16 17 17 17 18 18 18 17 17 16 16 16 15 14 13 13 13
16 17 17 18 16 16 16 18 20 20 18 17 17 16 14 14 13 11 11 11 11 11 11 11 12 12 13 13 13 13 13 13 14 14 15 15 16 16 16 16 16 16 16 16 15 15 13 12 12

GEFSSGP_850_meantemp_006.txt.gz
Temperature
19 19 19 20 20 21 22 25 27 27 27 26 26 26 26 25 24 20 19 18 17 17 16 16 15 15 14 14 14 13 13 12 11 11 11 11 11 11 11 11 11 11 11 11 12 11 11 10 11
19 19 20 21 20 21 23 25 27 27 26 26 26 26 27 23 22 19 18 18 17 16 16 16 15 15 14 14 13 13 13 12 12 11 11 11 11 11 12 11 12 11 11 12 12 11 10 10 10
19 19 20 21 21 22 24 27 28 26 25 26 26 26 25 23 21 19 19 18 17 16 15 15 15 14 14 13 13 13 12 12 11 11 11 11 11 11 11 12 12 12 12 13 13 12 11 10 10
19 20 21 21 22 24 25 26 26 26 26 25 26 26 23 22 21 20 19 18 16 16 15 15 15 14 14 13 13 13 12 11 11 11 11 11 11 11 11 12 12 12 12 12 13 12 12 11 12
19 20 20 20 22 24 26 28 27 27 27 26 26 26 22 21 21 20 19 17 17 16 16 15 15 14 14 13 13 13 12 11 11 11 11 11 11 11 11 11 11 11 12 12 12 13 13 13 13
20 21 20 21 23 25 26 28 27 27 27 27 26 26 21 20 20 19 18 17 17 16 16 15 15 14 13 13 13 13 12 12 11 11 12 11 11 11 11 11 11 11 11 11 12 13 13 13 13
20 19 19 21 23 24 27 28 27 26 26 27 26 26 21 20 20 20 18 17 17 16 16 15 15 14 14 14 14 13 12 12 12 12 12 12 12 11 11 11 11 11 11 12 12 13 13 13 13
19 19 20 21 22 24 27 27 27 26 26 26 26 26 22 21 21 20 19 17 16 16 15 15 15 15 15 15 15 14 13 12 12 13 13 13 13 12 11 11 12 12 12 12 12 13 13 13 14
19 18 19 21 23 24 25 25 26 25 25 25 25 24 23 22 22 20 19 17 17 16 16 15 15 14 14 15 16 15 15 14 14 14 14 14 13 12 12 13 13 12 12 12 13 13 13 13 13
19 17 19 22 23 23 23 24 25 25 25 25 24 23 22 22 22 21 20 19 18 17 16 16 15 15 14 14 15 16 16 16 16 16 15 14 13 12 11 12 13 13 13 13 13 13 13 13 13
20 19 20 22 23 22 22 23 24 24 24 25 25 23 22 22 22 22 21 20 20 19 18 17 16 15 15 15 15 17 17 17 16 16 15 14 13 12 12 13 13 14 14 14 14 13 13 13 13
20 20 21 22 22 21 22 23 24 24 24 25 25 24 24 23 22 22 22 21 20 20 19 18 17 16 16 16 16 17 17 16 17 16 14 14 13 13 13 14 14 14 14 14 13 13 13 13 13
20 20 21 22 22 21 21 21 22 24 25 25 25 24 23 23 22 21 21 20 20 20 20 19 18 17 17 17 17 18 17 17 17 16 16 15 14 14 14 14 14 13 13 13 12 13 13 13 13
21 21 21 22 22 22 21 22 23 23 24 25 24 24 23 22 22 21 21 21 21 20 20 19 19 18 18 18 18 18 18 17 17 17 17 16 15 15 14 14 14 14 14 14 13 13 13 12 12
21 20 20 21 22 22 22 21 22 24 24 24 24 24 23 23 23 22 22 21 21 20 20 19 19 19 19 18 18 18 18 17 17 17 17 17 16 16 15 15 15 15 14 14 14 14 13 12 12
20 19 18 21 21 22 20 20 23 25 24 24 24 24 24 24 23 23 22 22 21 21 20 19 19 18 19 19 19 18 18 17 18 18 18 18 17 17 16 16 16 15 15 14 14 14 13 13 12
18 18 19 21 22 22 21 20 22 24 24 24 24 24 24 24 24 23 23 23 22 21 21 20 19 19 19 19 19 18 18 18 18 19 19 19 19 18 18 17 17 16 15 14 14 14 13 13 12
19 19 20 20 21 21 20 20 22 24 23 23 24 24 23 22 22 22 23 23 22 22 21 21 20 19 18 18 18 18 18 19 19 19 19 19 19 19 18 18 18 16 15 15 14 13 13 12 11
20 21 21 22 21 21 20 21 22 22 22 22 22 21 20 20 20 20 21 21 21 21 21 21 20 20 19 18 17 17 18 19 18 19 19 19 19 19 18 18 17 16 15 15 14 13 12 12 11
20 20 21 22 21 20 20 21 22 22 21 21 20 19 19 19 18 18 18 20 20 20 20 20 20 19 19 18 18 17 17 18 18 18 18 18 18 17 16 16 16 15 14 13 13 12 11 11 11
19 19 20 21 21 20 20 20 21 21 21 20 20 19 19 18 17 17 18 19 19 19 19 19 19 19 18 18 17 17 16 16 16 17 17 17 16 15 15 14 14 13 12 12 12 12 11 11 11
19 20 19 19 18 19 19 18 19 19 19 19 19 19 18 18 17 18 18 18 18 18 19 19 18 18 17 17 17 16 16 15 16 15 15 15 15 15 15 14 13 12 12 11 11 11 11 11 11
19 19 19 19 18 18 20 19 19 19 19 18 19 19 18 17 17 18 18 18 18 18 18 18 17 17 17 17 16 16 15 15 15 14 14 15 15 15 15 15 14 13 12 12 11 11 11 11 11
19 19 18 18 17 17 20 19 19 19 18 18 18 19 18 17 17 17 17 18 18 18 17 17 17 17 16 16 16 15 15 15 14 14 14 14 14 14 14 14 14 13 12 12 12 12 12 11 11
18 17 17 16 16 18 19 19 19 20 19 18 18 18 18 17 16 16 16 17 17 17 16 16 16 16 16 16 16 15 15 14 14 14 13 13 13 13 13 13 13 13 13 12 12 11 12 12 12
17 18 17 18 19 18 18 17 20 20 20 20 19 18 17 16 16 15 14 15 15 15 15 15 15 15 15 15 15 15 14 14 14 14 14 13 13 13 13 13 13 13 12 12 12 11 12 12 12
19 18 19 18 19 17 19 21 22 19 18 18 19 18 17 16 15 14 14 14 14 15 14 14 14 13 13 13 13 13 13 13 13 13 13 13 13 13 13 13 12 12 12 12 12 12 12 12 12
17 18 17 17 18 17 20 20 19 18 17 18 18 18 17 16 15 14 13 13 13 13 13 12 12 12 12 12 12 12 12 11 11 11 11 11 11 11 11 12 12 12 12 12 11 11 11 12 12
16 17 17 17 18 17 18 19 19 19 19 18 18 17 16 15 14 14 13 13 12 12 12 12 12 11 11 11 11 11 11 11 11 11 10 10 10 10 10 10 10 10 10 11 11 11 11 11 11
17 18 17 16 17 17 16 17 19 18 18 18 18 17 16 15 14 13 13 12 12 12 12 11 11 11 11 11 10 10 10 10 10 10 9 9 9 9 10 10 9 9 9 9 10 10 10 10 10

GEFSSGP_850_meantemp_012.txt.gz
Temperature
19 19 20 20 17 15 17 18 20 21 23 24 25 24 22 22 23 22 21 20 19 18 17 16 15 15 14 14 13 13 13 13 11 11 11 11 11 11 10 10 10 10 10 11 11 11 11 11 11
19 19 20 19 15 16 17 18 20 21 24 25 25 24 22 21 22 22 21 20 18 17 17 16 15 15 14 14 13 13 13 12 11 11 11 11 11 11 11 11 11 10 11 12 12 11 11 11 11
19 19 19 15 15 16 18 21 22 23 24 24 24 23 23 22 22 22 21 20 19 18 17 16 15 15 14 14 13 13 13 12 11 11 11 11 11 11 11 12 12 12 13 13 13 12 11 11 11
19 19 18 15 17 17 18 19 21 23 24 25 24 22 22 22 22 22 21 21 19 18 17 16 15 15 14 14 13 13 13 12 11 11 11 11 11 11 12 13 13 13 13 13 13 13 12 12 13
19 18 15 15 17 17 18 20 22 22 23 24 24 21 22 22 22 21 21 21 19 18 17 16 15 15 15 14 14 13 13 13 11 11 11 11 11 12 13 13 13 13 13 13 13 13 14 14 14
18 15 14 15 16 17 18 22 23 23 23 24 23 21 22 22 22 21 21 20 19 18 17 16 15 15 15 14 14 14 14 14 12 11 12 13 13 13 13 13 13 13 13 13 13 14 14 14 14
17 13 14 16 16 17 20 21 21 22 23 24 24 20 20 22 22 21 20 19 18 18 17 16 15 15 15 15 15 15 15 15 13 13 14 14 14 14 14 13 13 12 12 13 13 13 13 14 14
18 14 16 15 16 18 20 21 22 22 23 24 24 21 22 23 22 21 19 18 18 18 17 17 16 16 16 16 16 16 16 15 14 15 15 15 15 14 14 13 13 13 13 12 12 13 13 14 14
18 14 14 15 17 18 19 20 22 23 23 24 24 24 24 23 22 21 20 19 19 19 18 17 17 17 16 16 16 17 17 16 16 15 15 15 15 15 14 13 13 13 13 13 13 13 14 14 14
17 13 15 16 18 17 19 20 20 21 21 23 23 24 24 23 23 22 21 21 21 21 19 18 18 17 17 17 17 17 17 17 16 16 16 15 15 15 15 15 15 14 14 14 14 14 14 14 14
16 14 15 17 19 19 19 20 21 20 20 22 23 23 23 22 22 22 22 22 22 21 20 20 19 18 17 17 17 17 17 17 17 16 16 16 16 16 16 16 16 16 15 15 15 15 14 14 14
15 16 17 18 19 19 19 20 20 20 21 22 23 23 23 22 22 23 23 22 22 21 20 20 19 18 18 18 17 17 17 17 17 17 17 16 16 17 17 16 16 16 16 15 15 15 15 14 14
16 16 18 19 19 19 19 19 19 20 22 23 23 23 23 23 23 23 22 22 21 21 20 20 19 19 18 18 18 17 17 17 17 17 17 17 17 17 17 17 17 16 16 16 15 15 15 15 14
16 17 18 18 19 19 18 19 19 20 22 22 22 23 23 23 23 23 22 22 22 22 21 20 19 19 19 18 18 18 17 18 17 17 17 17 17 17 17 17 17 17 16 16 15 15 15 15 14
18 16 16 17 18 19 19 17 18 21 21 22 22 22 23 23 22 22 22 22 22 22 21 21 20 19 19 19 19 18 18 18 18 18 18 17 17 17 17 17 17 17 16 15 15 14 14 14 14
17 16 15 16 17 18 18 16 17 21 21 21 22 22 21 21 21 20 20 20 21 20 21 21 20 20 20 19 19 19 18 18 18 18 18 17 17 17 16 16 16 15 14 14 14 13 13 13 13
15 14 14 15 16 17 16 16 17 20 21 20 20 20 20 20 20 20 20 21 21 21 21 20 20 20 20 19 19 19 18 18 18 18 18 17 16 16 15 15 15 14 14 14 13 13 13 13 13
13 14 14 14 16 16 16 16 16 19 19 18 18 18 19 19 19 19 20 20 21 21 21 20 20 19 19 19 18 18 18 18 18 18 17 17 16 16 15 14 14 14 13 13 13 12 12 12 12
14 15 14 14 16 16 16 16 16 17 16 16 17 17 17 17 17 19 19 20 20 20 20 19 19 19 19 18 18 18 18 18 18 17 17 16 15 15 14 14 13 13 13 13 13 12 12 12 11
14 14 13 15 17 17 17 17 16 17 16 17 17 17 17 17 18 18 19 19 19 19 19 19 19 19 19 18 18 17 17 17 17 16 15 15 14 14 14 13 13 13 13 13 13 12 12 12 11
14 13 14 16 17 17 17 16 17 16 16 16 16 16 16 17 17 17 18 18 19 19 19 19 18 18 18 18 17 17 16 16 15 15 15 14 14 13 13 13 13 13 13 13 13 13 12 12 12
14 15 15 17 15 14 16 14 15 15 15 15 15 16 16 15 16 16 17 17 17 17 17 17 17 17 17 16 16 16 15 14 14 14 14 13 13 13 13 13 13 12 12 12 13 13 12 12 12
15 16 17 16 15 14 14 14 14 14 14 14 14 16 15 15 15 15 16 16 16 16 16 16 16 16 15 15 15 14 14 13 13 13 13 13 12 12 12 12 12 12 12 12 12 12 12 12 12
16 16 15 12 12 14 14 13 14 13 14 14 13 15 15 14 15 15 15 15 15 15 15 15 15 15 14 14 14 14 13 13 13 13 13 12 12 12 12 11 11 11 11 11 11 11 11 11 11
15 13 13 13 12 13 14 13 15 14 14 14 13 14 15 15 15 15 15 15 15 15 14 14 14 13 13 13 13 13 12 12 12 12 11 11 11 11 11 11 11 11 11 10 10 10 10 11 10
13 13 13 13 13 13 15 14 15 14 15 16 16 15 15 15 15 15 15 14 14 13 13 13 13 12 12 12 12 12 11 11 11 10 10 10 10 10 10 10 10 10 10 10 10 10 10 10 9
13 13 13 13 14 14 14 14 15 12 12 13 14 14 15 16 16 15 14 14 13 12 12 12 12 12 11 11 11 11 10 10 10 9 9 9 9 9 9 9 9 9 9 9 9 9 9 9 9
14 13 12 13 14 14 15 15 15 14 12 12 12 13 15 16 15 14 14 13 12 12 11 11 11 11 10 10 10 10 10 9 9 8 8 8 8 8 7 7 7 7 7 7 7 7 7 7 7
15 15 13 12 12 13 14 14 14 14 13 12 12 14 16 16 15 14 13 12 11 11 10 10 10 10 10 10 9 9 9 9 8 8 7 7 7 7 6 6 6 5 5 5 5 5 5 5 5
14 14 13 13 13 12 12 13 14 14 13 13 14 15 16 15 14 13 12 11 11 10 10 10 10 9 9 9 9 8 8 8 7 7 6 6 6 6 5 5 4 4 4 4 4 4 4 4 4

GEFSSGP_850_meantemp_018.txt.gz
Temperature
19 19 19 19 16 14 16 17 18 18 19 22 22 22 22 22 23 22 22 22 20 19 18 16 15 15 15 14 14 13 13 13 12 11 11 11 11 11 10 10 10 10 10 10 11 11 11 11 12
19 19 19 18 14 15 16 17 18 19 21 22 22 22 22 22 23 23 23 22 20 18 17 16 15 15 14 14 13 13 13 13 12 11 11 11 11 11 11 10 10 10 10 11 11 11 11 11 11
19 19 19 14 14 15 18 18 18 19 21 22 22 22 22 23 23 23 23 22 21 19 17 16 15 15 14 14 13 13 13 13 12 11 11 11 12 11 10 10 10 10 11 11 11 11 10 11 11
18 19 17 13 16 16 16 17 17 17 21 22 23 22 23 23 24 23 23 22 21 19 18 17 15 15 14 14 13 13 13 13 12 12 11 11 11 11 10 10 11 11 11 12 12 11 11 11 11
18 18 14 13 15 15 15 17 18 17 19 22 22 22 23 24 24 23 23 23 21 20 18 17 16 15 14 14 13 13 13 13 13 12 12 12 11 11 10 11 11 12 12 12 12 12 11 11 12
18 15 14 14 14 15 15 18 17 17 18 21 21 21 24 24 24 24 23 23 21 19 18 17 16 15 14 14 14 13 13 13 13 13 12 12 12 11 11 11 12 12 11 11 11 11 11 11 12
17 13 14 14 14 15 17 19 18 17 18 21 22 21 24 24 24 24 23 23 21 19 18 17 16 15 15 14 14 14 13 13 14 14 14 14 14 13 12 13 13 12 11 10 10 11 11 12 12
17 13 15 13 14 15 17 19 19 19 19 21 21 21 23 23 23 23 23 23 22 20 18 17 16 16 15 15 15 14 14 14 14 15 15 15 14 14 14 14 13 12 11 11 11 11 11 11 12
16 13 13 14 14 15 17 17 19 19 19 21 21 22 22 22 23 23 23 23 23 22 20 18 17 16 16 15 16 15 15 15 15 15 15 15 15 15 15 14 14 13 13 12 12 11 11 12 12
15 12 13 15 15 16 17 17 18 19 18 20 22 22 22 22 23 23 23 24 23 23 21 19 18 17 16 16 16 16 16 16 16 16 16 16 15 15 15 15 14 14 13 13 12 12 12 12 13
14 13 14 15 17 17 16 17 18 18 17 20 21 21 22 22 22 22 23 23 23 22 21 20 19 18 17 17 17 16 16 16 17 17 16 16 16 16 16 15 15 14 14 13 13 13 13 13 13
13 13 15 16 17 17 17 17 17 17 18 20 20 21 21 22 22 22 22 22 22 21 21 20 19 19 18 17 17 17 17 17 17 17 17 16 17 16 16 16 15 15 14 14 14 13 13 13 13
13 14 16 17 17 17 17 16 16 17 20 20 20 21 21 21 22 22 21 20 20 20 20 20 19 19 18 18 17 17 17 17 17 17 17 17 17 17 16 16 16 15 15 14 14 14 13 13 13
14 15 16 16 17 17 16 16 16 18 20 20 20 21 21 21 21 21 21 21 20 20 20 19 19 19 18 18 18 18 18 17 17 17 17 17 16 16 16 16 15 15 15 14 14 14 13 13 13
15 15 14 15 16 16 16 15 15 19 19 19 20 20 20 21 21 21 21 21 21 20 20 20 20 19 19 19 18 18 18 17 17 17 17 16 16 16 15 15 15 15 14 14 13 13 13 13 13
14 14 14 14 15 16 16 15 16 18 18 18 18 18 19 20 20 21 21 21 21 21 21 20 20 20 20 19 19 18 18 18 17 17 16 16 15 15 14 14 14 14 13 13 13 12 12 12 12
14 13 13 14 15 15 14 14 15 17 18 17 17 17 17 18 19 19 20 20 20 20 20 20 20 20 20 19 18 18 17 17 17 16 16 15 15 14 14 13 13 13 12 12 12 12 12 12 12
12 13 14 13 14 14 13 13 15 16 17 16 15 15 15 17 17 18 18 19 19 19 19 20 20 20 19 19 18 17 17 16 16 15 15 14 14 14 13 13 13 13 12 12 12 12 12 12 12
12 13 13 13 14 14 13 13 14 15 15 15 14 14 14 15 15 16 17 18 18 18 18 19 19 19 19 18 17 16 15 14 14 14 13 13 13 13 13 13 12 12 12 12 12 12 12 12 12
13 13 13 13 13 14 12 12 13 13 14 15 14 13 13 13 14 15 16 17 17 18 18 18 18 18 18 17 16 15 14 13 13 13 13 13 13 13 12 12 12 12 11 11 11 11 11 11 11
12 12 13 13 12 13 13 13 14 14 14 14 14 13 13 14 14 15 15 16 17 17 17 17 17 17 17 16 15 14 13 12 12 12 12 12 12 12 11 11 11 11 11 11 10 10 10 9 10
12 13 13 13 13 12 13 12 13 13 13 12 12 12 13 13 13 14 15 15 16 15 15 16 16 15 15 14 14 13 13 13 12 11 11 11 11 11 11 11 11 11 10 10 10 10 9 9 9
13 14 13 13 13 12 12 12 12 13 13 12 11 12 12 13 13 13 14 14 14 14 14 14 14 14 13 13 13 13 12 12 11 12 12 12 11 11 11 11 10 10 10 9 9 9 9 8 8
13 13 12 11 11 12 12 12 12 12 12 12 11 12 12 12 12 13 13 13 13 13 13 13 14 13 13 13 12 12 12 12 12 12 12 11 11 11 10 10 9 9 8 8 8 8 8 7 7
13 13 12 12 11 11 12 11 12 13 13 12 11 12 12 12 12 12 12 12 12 13 13 13 13 12 12 12 12 12 11 11 11 11 10 10 10 10 9 9 8 8 7 7 7 6 6 6 6
12 12 11 12 11 11 11 10 12 13 12 13 13 13 12 12 12 12 12 12 12 12 12 12 12 12 11 11 11 11 10 10 10 9 9 9 8 8 7 7 7 7 6 6 6 5 5 4 4
11 11 12 11 12 11 11 11 12 13 11 10 11 12 12 12 12 12 12 12 12 12 11 11 11 11 11 10 10 10 9 9 9 8 8 7 7 6 6 6 6 6 6 5 5 5 4 3 3
12 11 10 12 12 12 12 12 13 14 13 11 9 10 12 12 12 12 11 11 11 11 11 11 10 10 10 9 9 9 8 8 8 7 7 6 6 5 5 5 5 5 5 5 4 4 3 2 2
11 11 11 11 10 11 12 13 13 12 12 10 10 11 12 12 12 12 11 11 11 10 10 10 10 9 9 8 8 7 7 7 6 6 5 5 5 5 5 5 5 4 4 4 3 3 2 1 0
12 11 10 11 10 9 10 12 13 10 10 10 11 11 12 13 12 12 11 10 10 9 9 9 8 8 8 7 7 7 6 6 5 5 5 4 4 4 4 4 4 4 3 3 2 1 1 -0 -2

GEFSSGP_850_meantemp_024.txt.gz
Temperature
19 19 20 19 22 22 23 24 24 24 24 24 23 24 26 26 26 25 22 22 21 19 18 16 16 15 15 15 14 14 13 13 12 11 11 11 11 11 11 11 11 10 11 11 11 11 12 12 12
18 19 19 20 22 22 23 23 23 23 23 22 23 23 25 26 24 22 22 22 20 19 18 16 16 15 15 15 14 14 13 13 12 11 11 11 11 10 10 10 11 11 11 11 11 11 11 11 12
18 19 19 21 21 22 23 22 23 23 22 21 24 24 25 25 23 21 22 22 20 19 17 16 16 15 15 15 14 14 13 13 12 11 11 11 11 11 11 11 11 11 11 12 12 11 11 11 11
18 19 20 22 21 22 22 23 22 22 23 22 23 25 24 23 22 21 22 22 20 18 17 16 16 15 15 14 14 13 13 13 12 11 11 11 11 11 11 11 11 12 12 12 12 12 11 11 10
18 20 21 21 21 22 22 21 21 22 23 23 23 25 25 22 22 22 22 21 19 18 17 16 16 15 15 14 14 13 13 13 12 11 11 11 11 11 11 11 11 11 11 11 11 11 11 11 10
19 20 21 21 21 21 22 20 20 22 22 22 22 24 24 21 21 21 21 21 18 18 17 16 16 15 14 14 14 13 13 13 13 12 11 11 11 11 11 10 10 10 10 10 10 10 11 11 11
19 20 20 21 21 21 21 20 21 21 22 22 21 23 24 21 21 21 21 20 19 18 17 16 15 15 14 14 13 14 14 14 13 13 12 12 12 12 11 11 11 11 11 10 10 10 10 10 10
18 20 20 20 20 21 21 20 20 21 22 21 20 23 23 20 21 20 20 20 19 18 17 16 15 14 14 14 14 14 14 14 14 14 13 13 13 13 13 12 12 12 12 12 12 11 11 11 11
17 19 19 20 20 21 20 20 20 19 20 20 21 21 21 20 21 20 19 19 19 19 18 17 16 15 15 14 15 15 15 15 15 14 14 14 13 12 12 13 13 14 14 14 13 13 13 12 12
17 18 20 20 21 21 20 20 20 20 21 22 22 21 20 20 20 19 18 18 19 19 19 18 17 16 16 15 15 15 15 15 15 13 13 13 13 13 13 14 14 14 14 14 14 13 13 13 12
18 19 20 19 19 19 19 19 19 20 21 22 21 21 20 19 19 19 19 19 19 18 19 19 18 18 17 17 16 16 15 15 15 14 14 14 14 14 14 14 14 14 14 14 14 13 13 12 12
18 19 19 19 18 18 19 19 19 19 20 20 20 19 19 19 20 20 20 19 19 19 19 19 19 18 18 17 17 16 16 16 16 15 15 15 14 14 14 14 14 14 13 13 13 13 12 12 12
17 18 18 18 17 17 17 19 19 19 20 20 19 18 18 19 19 20 21 21 20 20 19 19 19 19 18 18 18 17 17 16 15 15 15 15 14 14 14 14 14 13 13 13 13 12 12 12 12
18 18 18 18 18 17 18 19 19 19 20 19 19 18 18 18 19 20 20 20 20 20 20 20 19 19 18 18 18 17 16 16 15 15 15 15 14 14 14 13 13 13 13 13 13 13 13 13 12
17 17 18 18 18 18 18 19 20 20 19 19 19 18 17 17 19 20 20 21 21 21 20 20 20 19 19 18 17 17 16 15 15 15 14 14 14 14 14 14 14 13 13 13 13 13 13 13 13
17 17 17 19 19 18 18 19 21 20 19 19 19 18 16 16 17 18 19 20 20 20 20 20 20 19 19 18 17 16 15 15 14 14 14 14 14 14 14 14 14 13 13 13 13 12 12 12 11
16 16 17 18 19 19 18 19 21 19 19 19 19 18 16 15 15 17 18 19 19 19 19 19 19 19 19 18 16 15 14 15 14 14 14 14 14 14 13 13 13 12 12 12 12 11 11 11 11
15 17 17 18 18 18 18 19 20 20 19 19 19 18 16 15 15 16 17 18 18 18 18 18 18 18 18 17 15 15 14 14 14 13 13 13 13 13 13 12 12 12 12 11 11 11 11 10 10
17 17 17 18 18 17 18 19 20 20 19 19 19 17 16 14 14 15 16 16 17 17 17 17 18 17 17 16 15 14 14 13 13 13 12 12 12 12 12 12 11 11 11 10 10 10 10 9 9
17 17 17 18 17 17 18 19 20 20 19 19 19 17 16 14 13 13 15 15 16 16 17 17 17 16 16 15 15 14 13 12 12 12 12 12 12 11 11 11 11 10 10 10 9 9 8 8 8
16 17 17 17 17 17 17 19 20 19 17 16 16 16 15 14 13 13 14 15 16 16 16 16 16 15 15 14 14 13 12 12 12 11 11 11 11 11 10 10 10 9 9 9 8 7 7 6 6
15 17 17 17 17 17 17 17 20 20 18 16 15 15 14 13 13 12 13 14 15 15 15 15 15 14 14 13 13 12 12 12 11 11 11 10 10 10 10 9 9 8 8 7 7 6 6 5 5
16 16 16 16 16 16 17 17 19 19 19 18 16 14 13 12 12 12 13 14 14 14 14 14 13 13 13 13 12 12 12 11 11 10 10 10 10 9 9 8 8 7 7 6 6 6 6 5 4
15 15 15 15 15 15 17 17 19 21 20 18 16 14 12 12 11 11 12 13 13 13 13 13 13 13 12 12 12 11 11 10 10 10 10 9 9 9 8 8 7 6 6 6 6 5 5 5 4
15 15 13 13 14 16 17 17 19 20 18 18 16 14 12 11 11 10 11 12 12 12 12 12 12 12 11 11 11 11 10 10 10 9 9 9 8 8 7 7 6 6 5 5 5 5 4 4 3
14 15 15 16 16 17 15 16 20 18 16 15 15 14 12 11 11 10 11 11 12 12 12 11 11 11 11 11 10 10 10 9 9 9 8 8 7 6 6 5 5 5 4 4 4 4 3 3 2
14 14 15 16 16 17 18 18 19 16 16 15 14 13 12 11 10 10 10 10 11 11 11 11 11 10 10 10 9 9 9 8 8 8 7 6 6 5 5 4 4 4 4 3 3 3 2 1 0
15 15 14 14 16 17 18 18 19 19 18 15 14 13 12 11 10 10 10 10 10 10 10 10 10 9 9 9 8 8 7 7 7 6 6 5 4 4 4 3 3 3 3 2 2 1 1 -0 -1
13 14 15 15 16 17 18 19 19 18 17 16 15 14 13 11 10 9 9 9 10 10 9 9 9 8 8 8 7 7 6 6 5 5 4 4 3 3 3 3 2 2 1 1 1 -0 -1 -1 -2
15 15 15 15 15 16 18 19 17 16 15 15 14 13 12 11 10 9 9 9 9 9 8 8 8 7 7 7 6 6 5 5 4 4 3 3 3 2 2 1 1 1 0 -0 -1 -2 -2 -3 -3

GEFSSGP_850_meantemp_030.txt.gz
Temperature
19 19 19 20 19 19 21 23 25 26 26 25 25 25 25 26 25 22 21 20 20 19 19 17 16 15 15 15 14 14 14 13 12 11 11 11 11 11 11 10 10 10 10 10 11 11 12 12 12
19 19 20 20 19 19 21 23 25 26 25 25 25 26 26 27 24 22 20 20 19 19 19 17 16 15 15 15 14 14 13 13 12 11 11 11 11 11 10 10 10 10 10 10 11 11 11 11 11
19 19 20 20 20 20 22 24 25 25 25 25 25 26 26 25 24 22 21 20 19 18 18 17 16 15 15 15 14 14 13 13 13 11 11 11 11 11 11 11 11 11 11 11 11 11 11 11 11
18 19 21 20 20 22 24 24 24 23 24 25 25 25 24 22 22 21 20 20 19 18 18 18 16 15 15 15 14 14 14 13 13 12 11 11 11 11 11 11 11 12 12 12 12 12 12 12 12
18 19 19 20 21 23 25 25 24 23 24 25 25 25 23 21 21 20 20 20 19 19 18 18 17 16 15 15 14 14 14 14 13 13 12 12 11 11 11 11 12 12 12 12 12 12 12 13 13
19 20 19 19 21 24 24 24 23 23 24 25 25 24 22 21 21 20 20 19 19 19 18 19 17 16 16 15 15 14 14 14 14 14 13 12 12 12 12 12 13 13 13 13 13 13 13 13 13
19 19 19 20 21 23 24 23 23 23 23 24 23 24 21 20 21 20 19 19 19 18 18 19 18 17 16 16 15 15 15 15 15 15 14 14 13 13 13 14 14 14 14 14 14 14 14 14 14
18 19 18 19 20 22 24 23 23 23 22 23 23 23 22 21 21 20 19 19 19 18 18 18 18 18 17 16 16 16 16 16 15 15 15 15 15 14 14 14 14 14 15 15 15 15 14 14 14
18 17 17 19 20 22 24 23 23 23 22 22 23 23 22 22 21 20 19 19 19 18 18 18 18 17 17 16 16 16 16 16 16 16 15 15 15 14 13 14 14 14 15 15 15 15 15 15 14
17 16 18 20 21 22 23 23 22 22 22 23 23 23 23 22 21 21 20 20 19 19 18 18 18 17 16 16 16 16 16 16 16 16 15 15 14 13 13 14 14 14 15 15 15 15 15 14 14
17 17 19 20 22 22 22 22 22 22 21 22 23 23 22 22 21 22 21 21 21 20 19 18 18 17 16 16 15 15 15 15 15 15 14 14 14 14 14 14 14 14 15 15 15 15 14 14 14
17 18 19 20 21 21 21 21 21 21 21 22 22 22 21 21 21 22 22 22 21 21 20 19 18 17 17 16 16 15 15 15 14 14 14 14 14 14 14 13 13 14 14 13 13 13 13 13 13
17 18 19 20 20 21 21 20 20 21 21 21 21 22 21 21 21 21 21 21 21 21 20 19 18 18 17 16 16 15 15 15 14 14 14 14 13 13 13 13 13 13 13 13 13 12 12 12 12
17 18 19 19 20 21 20 20 20 20 21 21 22 22 21 21 21 20 20 20 20 20 20 19 18 17 17 16 16 15 15 15 15 14 14 13 13 13 13 13 13 12 12 12 12 12 12 12 12
16 16 17 19 20 20 20 18 19 20 21 21 21 22 21 20 20 19 19 19 19 19 19 18 18 17 17 16 16 15 15 15 14 14 13 13 13 12 12 12 12 12 12 12 12 12 12 12 11
15 15 15 17 19 20 19 17 19 21 21 21 22 22 21 20 19 18 17 17 17 18 18 18 18 17 16 16 15 15 15 14 14 13 13 12 12 12 12 12 12 12 12 12 11 11 11 11 11
13 13 14 16 19 19 18 17 19 21 21 22 22 22 21 19 18 17 16 16 16 17 17 18 18 17 16 15 15 15 14 14 13 13 12 12 12 12 12 12 12 11 11 11 11 11 11 11 10
13 14 15 16 18 19 18 18 19 21 21 21 22 22 21 20 18 17 16 15 16 16 16 16 17 16 15 14 14 14 13 13 13 12 12 12 12 12 11 11 11 11 11 11 11 10 10 10 9
13 14 15 17 18 19 18 18 19 20 20 21 22 22 21 19 17 16 15 15 15 15 15 15 15 15 14 14 13 13 13 12 12 12 12 12 12 11 11 11 11 11 10 10 9 9 9 9 8
12 13 14 17 18 19 18 18 19 20 20 21 22 22 20 17 16 15 14 14 14 14 14 14 13 13 13 13 13 12 12 12 12 11 11 11 11 11 11 11 10 10 9 9 8 8 8 7 7
11 12 13 16 18 19 18 17 18 19 21 21 22 21 20 17 15 14 14 13 13 13 13 13 13 13 13 13 12 12 12 11 11 11 11 11 11 10 10 10 9 9 8 8 7 7 6 6 6
11 12 14 16 16 16 16 15 18 19 19 19 20 20 18 16 15 14 13 13 13 13 13 13 13 12 12 12 12 12 12 11 11 11 10 10 10 10 10 9 9 8 7 7 6 6 5 5 5
10 13 14 15 16 16 17 16 17 19 18 17 18 19 17 16 15 13 12 12 12 12 12 12 12 12 12 12 12 12 11 11 10 10 10 10 9 9 9 8 8 7 6 6 6 5 5 4 4
10 12 13 14 14 14 16 16 17 19 19 18 17 18 16 15 14 13 12 12 12 12 12 12 12 12 12 12 11 11 11 10 10 10 9 9 9 8 8 7 7 6 6 5 5 5 4 4 3
10 11 11 12 12 14 17 16 17 19 20 19 17 16 16 14 13 12 11 11 12 12 12 12 12 12 11 11 11 11 10 10 9 9 9 8 8 8 7 6 6 5 5 4 4 4 4 3 2
10 11 12 13 13 15 17 17 18 18 18 19 18 16 15 14 12 11 11 11 11 12 11 11 11 11 11 11 10 10 10 9 9 9 8 8 7 7 6 5 5 4 4 4 4 3 3 2 1
11 12 15 16 16 16 16 18 17 17 16 17 16 15 14 13 12 11 11 10 11 11 11 11 11 11 10 10 10 9 9 9 8 8 7 7 6 5 5 4 4 4 3 3 3 2 2 1 0
11 13 14 15 16 16 16 17 17 16 15 16 15 14 14 13 12 11 10 10 10 10 10 10 10 10 10 9 9 8 8 8 7 7 6 6 5 4 4 3 3 3 3 2 2 1 0 -0 -1
11 13 14 15 17 17 16 17 19 17 17 16 15 15 14 13 12 11 10 10 10 9 9 9 9 9 9 8 8 8 7 7 6 6 5 4 4 3 3 3 3 2 2 1 1 0 -1 -2 -2
12 14 15 15 16 17 17 16 19 17 17 16 15 15 14 13 12 11 10 10 9 9 9 9 9 8 8 8 7 7 6 6 5 5 4 3 3 3 2 2 2 2 1 0 -0 -1 -2 -3 -3